When you browse on this site, cookies collect data to enhance your experience and personalize the content and advertising you see.
Visit our Privacy Policy to learn more. By continuing to use the site, you agree to this use of cookies and data.
  • In Schweiz
  • Länderverzeichnis
  • Für 7 Tage
  • Wassertemperatur
  • Wetterkarte
  • Widgets
  • user-avatar
    Anmelden

    Stündliche Wetter Valencia

    Heute, 22 Oktober, Dienstag

    Zeit Temperatur Niederschläge Wind Luftdruck Luftfeuchtigkeit
    00:00 +23°C° 0 mm 1 m/S 717 mmHg 97%
    01:00 +24°C° 0 mm 1 m/S 717 mmHg 96%
    02:00 +24°C° 0 mm 1 m/S 716 mmHg 96%
    03:00 +23°C° 0 mm 1 m/S 716 mmHg 96%
    04:00 +23°C° 0 mm 1 m/S 716 mmHg 96%
    05:00 +24°C° 0 mm 1 m/S 716 mmHg 94%
    06:00 +24°C° 0 mm 1 m/S 717 mmHg 92%
    07:00 +25°C° 0 mm 1 m/S 718 mmHg 91%
    08:00 +27°C° 0 mm 1 m/S 718 mmHg 81%
    09:00 +29°C° 0 mm 1 m/S 718 mmHg 71%
    10:00 +29°C° 0 mm 0 m/S 718 mmHg 61%
    11:00 +31°C° 0.1 mm 1 m/S 718 mmHg 62%
    12:00 +31°C° 0.1 mm 1 m/S 717 mmHg 62%
    13:00 +31°C° 0.1 mm 1 m/S 716 mmHg 63%
    14:00 +30°C° 0.2 mm 1 m/S 716 mmHg 69%
    15:00 +29°C° 0.2 mm 1 m/S 715 mmHg 75%
    16:00 +28°C° 0.2 mm 1 m/S 715 mmHg 81%
    17:00 +26°C° 0 mm 1 m/S 715 mmHg 86%
    18:00 +25°C° 0 mm 1 m/S 715 mmHg 90%
    19:00 +23°C° 0 mm 1 m/S 716 mmHg 95%
    20:00 +23°C° 0 mm 1 m/S 716 mmHg 95%
    21:00 +23°C° 0 mm 1 m/S 716 mmHg 95%
    22:00 +23°C° 0 mm 1 m/S 716 mmHg 96%
    23:00 +23°C° 0 mm 1 m/S 716 mmHg 96%

    Morgen, 23 Oktober, Mittwoch

    Zeit Temperatur Niederschläge Wind Luftdruck Luftfeuchtigkeit
    00:00 +23°C° 0 mm 1 m/S 715 mmHg 96%
    01:00 +23°C° 0 mm 1 m/S 715 mmHg 96%
    02:00 +23°C° 0 mm 1 m/S 715 mmHg 96%
    03:00 +23°C° 0 mm 1 m/S 715 mmHg 96%
    04:00 +21°C° 0 mm 0 m/S 715 mmHg 96%
    05:00 +22°C° 0 mm 0 m/S 716 mmHg 93%
    06:00 +22°C° 0 mm 0 m/S 716 mmHg 91%
    07:00 +23°C° 0 mm 0 m/S 717 mmHg 89%
    08:00 +27°C° 0 mm 1 m/S 717 mmHg 79%
    09:00 +29°C° 0 mm 1 m/S 717 mmHg 69%
    10:00 +31°C° 0 mm 1 m/S 718 mmHg 60%
    11:00 +30°C° 0.6 mm 1 m/S 717 mmHg 65%
    12:00 +30°C° 0.6 mm 1 m/S 716 mmHg 69%
    13:00 +29°C° 0.6 mm 1 m/S 715 mmHg 74%
    14:00 +29°C° 1 mm 1 m/S 715 mmHg 78%
    15:00 +28°C° 1 mm 1 m/S 715 mmHg 82%
    16:00 +28°C° 1 mm 1 m/S 715 mmHg 86%
    17:00 +24°C° 0.3 mm 0 m/S 715 mmHg 88%
    18:00 +23°C° 0.3 mm 0 m/S 715 mmHg 91%
    19:00 +22°C° 0.3 mm 0 m/S 716 mmHg 93%
    20:00 +22°C° 0.2 mm 0 m/S 716 mmHg 93%
    21:00 +21°C° 0.2 mm 0 m/S 716 mmHg 92%
    22:00 +21°C° 0.2 mm 0 m/S 716 mmHg 92%
    23:00 +21°C° 0 mm 0 m/S 716 mmHg 92%

    übermorgen, 24 Oktober, Donnerstag

    Zeit Temperatur Niederschläge Wind Luftdruck Luftfeuchtigkeit
    00:00 +21°C° 0 mm 0 m/S 715 mmHg 93%
    01:00 +20°C° 0 mm 0 m/S 715 mmHg 93%
    02:00 +20°C° 0 mm 0 m/S 715 mmHg 93%
    03:00 +20°C° 0 mm 0 m/S 715 mmHg 93%
    04:00 +20°C° 0 mm 0 m/S 715 mmHg 93%
    05:00 +21°C° 0 mm 0 m/S 716 mmHg 90%
    06:00 +22°C° 0 mm 0 m/S 716 mmHg 88%
    07:00 +23°C° 0 mm 0 m/S 717 mmHg 86%
    08:00 +27°C° 0 mm 1 m/S 717 mmHg 79%
    09:00 +28°C° 0 mm 1 m/S 717 mmHg 71%
    10:00 +30°C° 0 mm 1 m/S 718 mmHg 64%
    11:00 +30°C° 0.1 mm 2 m/S 717 mmHg 65%
    12:00 +30°C° 0.1 mm 2 m/S 716 mmHg 66%
    13:00 +30°C° 0.1 mm 2 m/S 715 mmHg 68%
    14:00 +30°C° 0.5 mm 2 m/S 715 mmHg 71%
    15:00 +30°C° 0.5 mm 1 m/S 715 mmHg 75%
    16:00 +29°C° 0.5 mm 1 m/S 715 mmHg 79%
    17:00 +27°C° 0.6 mm 1 m/S 715 mmHg 84%
    18:00 +26°C° 0.6 mm 1 m/S 715 mmHg 88%
    19:00 +24°C° 0.6 mm 1 m/S 715 mmHg 93%
    20:00 +24°C° 0.4 mm 1 m/S 715 mmHg 93%
    21:00 +24°C° 0.4 mm 1 m/S 716 mmHg 93%
    22:00 +23°C° 0.4 mm 1 m/S 716 mmHg 93%
    23:00 +23°C° 0 mm 1 m/S 716 mmHg 93%

    25 Oktober, Freitag

    Zeit Temperatur Niederschläge Wind Luftdruck Luftfeuchtigkeit
    00:00 +21°C° 0 mm 0 m/S 715 mmHg 92%
    01:00 +21°C° 0 mm 0 m/S 715 mmHg 92%
    02:00 +21°C° 0.1 mm 0 m/S 715 mmHg 92%
    03:00 +21°C° 0.1 mm 0 m/S 715 mmHg 91%
    04:00 +21°C° 0.1 mm 0 m/S 716 mmHg 91%
    05:00 +22°C° 0.3 mm 0 m/S 716 mmHg 91%
    06:00 +22°C° 0.3 mm 0 m/S 717 mmHg 90%
    07:00 +25°C° 0.3 mm 1 m/S 717 mmHg 89%
    08:00 +26°C° 0.6 mm 1 m/S 718 mmHg 85%
    09:00 +28°C° 0.6 mm 1 m/S 718 mmHg 82%
    10:00 +29°C° 0.6 mm 1 m/S 718 mmHg 78%
    11:00 +29°C° 0.7 mm 1 m/S 717 mmHg 75%
    12:00 +30°C° 0.7 mm 1 m/S 716 mmHg 73%
    13:00 +30°C° 0.7 mm 1 m/S 716 mmHg 71%
    14:00 +29°C° 0.7 mm 1 m/S 715 mmHg 75%
    15:00 +29°C° 0.7 mm 1 m/S 715 mmHg 79%
    16:00 +28°C° 0.7 mm 1 m/S 715 mmHg 84%
    17:00 +27°C° 0.9 mm 1 m/S 715 mmHg 86%
    18:00 +26°C° 0.9 mm 1 m/S 716 mmHg 89%
    19:00 +25°C° 0.9 mm 1 m/S 716 mmHg 92%
    20:00 +24°C° 0.2 mm 1 m/S 716 mmHg 92%
    21:00 +22°C° 0.2 mm 0 m/S 716 mmHg 92%
    22:00 +22°C° 0.2 mm 0 m/S 717 mmHg 92%
    23:00 +22°C° 0 mm 0 m/S 716 mmHg 92%

    26 Oktober, Samstag

    Zeit Temperatur Niederschläge Wind Luftdruck Luftfeuchtigkeit
    00:00 +21°C° 0 mm 0 m/S 716 mmHg 92%
    01:00 +21°C° 0 mm 0 m/S 715 mmHg 93%
    02:00 +21°C° 0 mm 0 m/S 715 mmHg 93%
    03:00 +21°C° 0 mm 0 m/S 715 mmHg 93%
    04:00 +21°C° 0 mm 0 m/S 715 mmHg 93%
    05:00 +22°C° 0 mm 0 m/S 716 mmHg 91%
    06:00 +23°C° 0 mm 0 m/S 717 mmHg 90%
    07:00 +24°C° 0 mm 0 m/S 717 mmHg 88%
    08:00 +25°C° 0.2 mm 0 m/S 718 mmHg 81%
    09:00 +29°C° 0.2 mm 1 m/S 718 mmHg 75%
    10:00 +30°C° 0.2 mm 1 m/S 718 mmHg 68%
    11:00 +30°C° 0.6 mm 1 m/S 717 mmHg 69%
    12:00 +30°C° 0.6 mm 1 m/S 717 mmHg 70%
    13:00 +30°C° 0.6 mm 1 m/S 716 mmHg 71%
    14:00 +30°C° 0.5 mm 1 m/S 716 mmHg 76%
    15:00 +29°C° 0.5 mm 1 m/S 715 mmHg 81%
    16:00 +28°C° 0.5 mm 1 m/S 715 mmHg 86%
    17:00 +27°C° 0.3 mm 1 m/S 716 mmHg 88%
    18:00 +24°C° 0.3 mm 0 m/S 716 mmHg 91%
    19:00 +23°C° 0.3 mm 0 m/S 716 mmHg 94%
    20:00 +22°C° 0.1 mm 0 m/S 716 mmHg 94%
    21:00 +22°C° 0.1 mm 0 m/S 716 mmHg 94%
    22:00 +22°C° 0.1 mm 0 m/S 716 mmHg 94%
    23:00 +22°C° 0.1 mm 0 m/S 716 mmHg 94%

    27 Oktober, Sonntag

    Zeit Temperatur Niederschläge Wind Luftdruck Luftfeuchtigkeit
    00:00 +21°C° 0.1 mm 0 m/S 716 mmHg 94%
    01:00 +21°C° 0.1 mm 0 m/S 716 mmHg 94%
    02:00 +21°C° 0 mm 0 m/S 716 mmHg 94%
    03:00 +21°C° 0 mm 0 m/S 715 mmHg 93%
    04:00 +21°C° 0 mm 0 m/S 715 mmHg 93%
    05:00 +22°C° 0 mm 0 m/S 716 mmHg 91%
    06:00 +23°C° 0 mm 0 m/S 717 mmHg 90%
    07:00 +24°C° 0 mm 0 m/S 717 mmHg 88%
    08:00 +27°C° 0 mm 1 m/S 717 mmHg 80%
    09:00 +29°C° 0 mm 1 m/S 718 mmHg 72%
    10:00 +31°C° 0 mm 1 m/S 718 mmHg 64%
    11:00 +31°C° 0.3 mm 1 m/S 717 mmHg 66%
    12:00 +31°C° 0.3 mm 1 m/S 716 mmHg 67%
    13:00 +31°C° 0.3 mm 1 m/S 715 mmHg 69%
    14:00 +30°C° 0.4 mm 1 m/S 715 mmHg 74%
    15:00 +29°C° 0.4 mm 1 m/S 715 mmHg 79%
    16:00 +29°C° 0.4 mm 1 m/S 715 mmHg 84%
    17:00 +27°C° 0.2 mm 1 m/S 715 mmHg 88%
    18:00 +26°C° 0.2 mm 1 m/S 715 mmHg 91%
    19:00 +25°C° 0.2 mm 1 m/S 716 mmHg 95%
    20:00 +22°C° 0 mm 0 m/S 716 mmHg 95%
    21:00 +22°C° 0 mm 0 m/S 716 mmHg 95%
    22:00 +22°C° 0 mm 0 m/S 716 mmHg 94%
    23:00 +22°C° 0.2 mm 0 m/S 716 mmHg 95%

    28 Oktober, Montag

    Zeit Temperatur Niederschläge Wind Luftdruck Luftfeuchtigkeit
    00:00 +21°C° 0.2 mm 0 m/S 716 mmHg 95%
    01:00 +21°C° 0.2 mm 0 m/S 716 mmHg 95%
    02:00 +21°C° 0.1 mm 0 m/S 716 mmHg 95%
    03:00 +21°C° 0.1 mm 0 m/S 715 mmHg 94%
    04:00 +21°C° 0.1 mm 0 m/S 715 mmHg 94%
    05:00 +22°C° 0 mm 0 m/S 716 mmHg 92%
    06:00 +23°C° 0 mm 0 m/S 717 mmHg 91%
    07:00 +24°C° 0 mm 0 m/S 717 mmHg 89%
    08:00 +27°C° 0.4 mm 1 m/S 717 mmHg 83%
    09:00 +28°C° 0.4 mm 1 m/S 718 mmHg 77%
    10:00 +30°C° 0.4 mm 2 m/S 718 mmHg 70%
    11:00 +30°C° 0.4 mm 2 m/S 717 mmHg 68%
    12:00 +30°C° 0.4 mm 2 m/S 716 mmHg 66%
    13:00 +31°C° 0.4 mm 2 m/S 716 mmHg 64%
    14:00 +30°C° 0.2 mm 2 m/S 715 mmHg 69%
    15:00 +30°C° 0.2 mm 1 m/S 715 mmHg 74%
    16:00 +29°C° 0.2 mm 1 m/S 715 mmHg 79%
    17:00 +28°C° 0.1 mm 1 m/S 715 mmHg 84%
    18:00 +26°C° 0.1 mm 1 m/S 715 mmHg 89%
    19:00 +25°C° 0.1 mm 1 m/S 716 mmHg 94%
    20:00 +24°C° 0.6 mm 1 m/S 716 mmHg 94%
    21:00 +24°C° 0.6 mm 1 m/S 716 mmHg 94%
    22:00 +22°C° 0.6 mm 0 m/S 716 mmHg 95%
    23:00 +22°C° 0.4 mm 0 m/S 716 mmHg 94%
    Mehr zeigen